TimeEST,TemperatureF,Dew PointF,Humidity,Sea Level PressureIn,VisibilityMPH,Wind Direction,Wind SpeedMPH,Gust SpeedMPH,PrecipitationIn,Events,Conditions,WindDirDegrees,DateUTC
12:51 AM,27.0,10.0,49,30.07,10.0,North,6.9,-,N/A,,Overcast,360,2013-01-18 05:51:00
1:51 AM,26.6,6.8,43,30.08,10.0,North,8.1,-,N/A,,Overcast,350,2013-01-18 06:51:00
2:51 AM,26.1,6.1,43,30.11,10.0,NNW,6.9,-,N/A,,Overcast,330,2013-01-18 07:51:00
3:51 AM,26.1,7.0,44,30.10,10.0,NNW,12.7,17.3,N/A,,Overcast,330,2013-01-18 08:51:00
4:51 AM,24.1,5.0,44,30.14,10.0,North,10.4,-,N/A,,Mostly Cloudy,360,2013-01-18 09:51:00
5:51 AM,21.0,1.9,44,30.20,10.0,North,11.5,-,N/A,,Partly Cloudy,10,2013-01-18 10:51:00
6:51 AM,19.9,-0.0,42,30.26,10.0,NNW,6.9,-,N/A,,Partly Cloudy,340,2013-01-18 11:51:00
7:51 AM,19.0,-0.9,42,30.31,10.0,NNW,8.1,-,N/A,,Partly Cloudy,330,2013-01-18 12:51:00
8:51 AM,19.9,-0.9,40,30.35,10.0,WNW,13.8,19.6,N/A,,Clear,300,2013-01-18 13:51:00
9:51 AM,21.0,-0.9,38,30.38,10.0,NW,6.9,-,N/A,,Clear,320,2013-01-18 14:51:00
10:51 AM,21.9,-0.0,38,30.40,10.0,NW,15.0,21.9,N/A,,Partly Cloudy,320,2013-01-18 15:51:00
11:51 AM,23.0,-0.0,37,30.38,10.0,NW,19.6,25.3,N/A,,Partly Cloudy,310,2013-01-18 16:51:00
12:51 PM,24.1,-0.0,35,30.39,10.0,NNW,11.5,20.7,N/A,,Partly Cloudy,340,2013-01-18 17:51:00
1:51 PM,24.1,1.0,37,30.40,10.0,West,16.1,23.0,N/A,,Partly Cloudy,270,2013-01-18 18:51:00
2:51 PM,25.0,1.0,36,30.41,10.0,WNW,13.8,-,N/A,,Partly Cloudy,300,2013-01-18 19:51:00
3:51 PM,25.0,1.0,36,30.41,10.0,WNW,8.1,-,N/A,,Partly Cloudy,290,2013-01-18 20:51:00
4:51 PM,23.0,1.4,39,30.41,10.0,West,5.8,-,N/A,,Clear,260,2013-01-18 21:51:00
5:51 PM,23.0,1.0,39,30.43,10.0,Calm,Calm,-,N/A,,Clear,0,2013-01-18 22:51:00
6:51 PM,23.0,1.0,39,30.46,10.0,Calm,Calm,-,N/A,,Clear,0,2013-01-18 23:51:00
7:51 PM,19.0,5.0,54,30.44,10.0,South,6.9,-,N/A,,Clear,190,2013-01-19 00:51:00
8:51 PM,19.9,5.0,52,30.43,10.0,South,8.1,-,N/A,,Clear,180,2013-01-19 01:51:00
9:51 PM,19.9,5.0,52,30.42,10.0,SSE,5.8,-,N/A,,Clear,160,2013-01-19 02:51:00
10:51 PM,21.0,6.1,53,30.41,10.0,South,8.1,-,N/A,,Partly Cloudy,180,2013-01-19 03:51:00
11:51 PM,21.9,7.0,53,30.36,10.0,South,11.5,-,N/A,,Mostly Cloudy,180,2013-01-19 04:51:00